Weather History for Columbus AFB, MS

Change the Weather History Date:

Wednesday, October 30, 2013

  Actual Average Record
Temperature  
Mean Temperature 68 °F -  
Max Temperature 77 °F 70 °F 87 °F (1998)
Min Temperature 59 °F 48 °F 30 °F (2011)
Cooling Degree Days 3    
Growing Degree Days 18 (Base 50)    
Moisture  
Dew Point 60 °F    
Average Humidity 81    
Maximum Humidity 100    
Minimum Humidity 54    
Precipitation  
Precipitation 0.00 in - - ()
Sea Level Pressure  
Sea Level Pressure 30.16 in    
Wind  
Wind Speed 5 mph (SSE)    
Max Wind Speed 10 mph    
Max Gust Speed -    
Visibility 10 miles    
Events      
Averages and records for this station are not official NWS values.
T = Trace of Precipitation, MM = Missing Value Source: NWS Daily Summary

Daily Weather History Graph

Daily Weather History Graph

Search for Another Location

Airport:

Trip Planner

Search our weather history database for the weather conditions in past years. The results will help you decide how hot, cold, wet, or windy it might be!

Date:

Astronomy

Oct. 30, 2013 Rise Set
Actual Time 7:11 AM CDT 6:03 PM CDT
Civil Twilight 6:45 AM CDT 6:28 PM CDT
Nautical Twilight 6:16 AM CDT 6:58 PM CDT
Astronomical Twilight 5:47 AM CDT 7:27 PM CDT
Moon 3:11 AM CDT 3:38 PM CDT
Length of Visible Light 11h 43m
Length of Day
10h 51m
Waning Crescent, 17% of the Moon is Illuminated
Oct 30
Waning Crescent
Nov 3
New
Nov 9
First Quarter
Nov 17
Full
Nov 25
Last Quarter

Hourly Weather History & Observations

Time (CDT) Temp. Dew Point Humidity Pressure Visibility Wind Dir Wind Speed Gust Speed Precip Events Conditions
12:55 AM 59.0 °F 59.0 °F 100% 30.20 in 10.0 mi SSE 3.5 mph - N/A   Clear
1:55 AM 62.6 °F 59.0 °F 88% 30.20 in 10.0 mi SSW 4.6 mph - N/A   Clear
2:55 AM 60.8 °F 59.0 °F 94% 30.20 in 10.0 mi SSW 3.5 mph - N/A   Partly Cloudy
3:55 AM 59.0 °F 59.0 °F 100% 30.21 in 10.0 mi SSW 1.2 mph - N/A   Clear
4:55 AM 59.0 °F 59.0 °F 100% 30.21 in 10.0 mi Calm Calm - N/A   Clear
5:55 AM 59.0 °F 59.0 °F 100% 30.22 in 10.0 mi SE 2.3 mph - N/A   Partly Cloudy
6:55 AM 59.0 °F 59.0 °F 100% 30.22 in 10.0 mi SSE 3.5 mph - N/A   Scattered Clouds
7:55 AM 60.8 °F 60.8 °F 100% 30.22 in 10.0 mi SSE 3.5 mph - N/A   Clear
8:55 AM 64.4 °F 60.8 °F 88% 30.24 in 10.0 mi SSE 4.6 mph - N/A   Clear
9:55 AM 66.2 °F 60.8 °F 83% 30.25 in 10.0 mi SE 5.8 mph - N/A   Clear
10:55 AM 73.4 °F 60.8 °F 65% 30.24 in 10.0 mi South 6.9 mph - N/A   Clear
11:55 AM 77.0 °F 59.0 °F 54% 30.22 in 10.0 mi South 10.4 mph - N/A   Clear
12:55 PM 77.0 °F 59.0 °F 54% 30.19 in 10.0 mi South 9.2 mph - N/A   Clear
1:55 PM 77.0 °F 60.8 °F 57% 30.15 in 10.0 mi South 9.2 mph - N/A   Clear
2:55 PM 77.0 °F 59.0 °F 54% 30.13 in 10.0 mi South 9.2 mph - N/A   Partly Cloudy
3:55 PM 77.0 °F 60.8 °F 57% 30.12 in 10.0 mi South 8.1 mph - N/A   Clear
4:55 PM 73.4 °F 60.8 °F 65% 30.09 in 10.0 mi SSE 6.9 mph - N/A   Clear
5:55 PM 69.8 °F 60.8 °F 73% 30.09 in 10.0 mi South 5.8 mph - N/A   Clear
6:55 PM 68.0 °F 60.8 °F 78% 30.09 in 10.0 mi SSE 4.6 mph - N/A   Partly Cloudy
7:55 PM 66.2 °F 62.6 °F 88% 30.09 in 10.0 mi SSE 6.9 mph - N/A   Mostly Cloudy
8:55 PM 66.2 °F 62.6 °F 88% 30.08 in 10.0 mi SSE 5.8 mph - N/A   Overcast
9:55 PM 66.2 °F 62.6 °F 88% 30.09 in 10.0 mi SE 8.1 mph - N/A   Clear
10:55 PM 66.2 °F 60.8 °F 83% 30.09 in 10.0 mi South 6.9 mph - N/A   Clear
11:55 PM 68.0 °F 60.8 °F 78% 30.04 in 10.0 mi South 9.2 mph - N/A   Clear